Regional Weather Roundup
Issued by NWS Jackson, KY

Home | Current Version | Previous Version | Graphics & Text | Print | Product List | Glossary On
Versions: 1 2 3 4 5 6 7 8 9 10 11 12 13 14 15 16 17 18 19 20 21 22 23 24 25 26 27 28 29 30 31 32 33 34 35 36 37 38 39 40 41 42 43 44 45 46 47 48 49 50
000
ASUS43 KJKL 202110
RWRJKL

EAST KENTUCKY HOURLY WEATHER ROUNDUP
NATIONAL WEATHER SERVICE JACKSON KY
500 PM EDT SUN AUG 20 2017

NOTE: "FAIR" INDICATES FEW OR NO CLOUDS BELOW 12,000 FEET WITH
NO SIGNIFICANT WEATHER AND/OR OBSTRUCTIONS TO VISIBILITY.

* THESE REPORTS ARE NOT UNDER NWS QUALITY CONTROL AND MAY NOT
  REPORT WEATHER SUCH AS PRECIPITATION AND FOG.

KYZ079-080-083-085-087-088-110-112-115-119-120-202200
...EASTERN KENTUCKY...

CITY           SKY/WX    TMP DP  RH WIND       PRES   REMARKS
JACKSON        SUNNY     87  68  52 CALM      30.11F HX  90
LONDON         SUNNY     87  58  37 CALM      30.11S
SOMERSET*      MOSUNNY   88  55  33 CALM      30.10F
MONTICELLO*    SUNNY     90  64  42 VRB7      30.10F HX  91
WILLIAMSBURG*  CLEAR     88  59  37 NW3       30.10S
MIDDLESBORO*   MOSUNNY   87  67  50 CALM      30.11S HX  90
HARLAN APT*    PTCLDY    88  63  42 CALM      30.13S
PIKE CO APT*     N/A     85  68  56 CALM      30.13S
BIG SANDY APT* CLEAR     88  68  51 CALM      30.11F HX  91
MOREHEAD APT*  CLEAR     88  66  48 S6        30.10F HX  90
$$

KYZ035-036-041-042-044-050-067-078-099-202200
...CENTRAL KENTUCKY...

CITY           SKY/WX    TMP DP  RH WIND       PRES   REMARKS
MT STERLING*   SUNNY     88  66  48 SW5       30.10F HX  90
FLEMING/MASON* MOSUNNY   89  66  46 S5        30.09S HX  91
DANVILLE*      MOSUNNY   88  66  48 SW5       30.09F HX  90
LEXINGTON      MOSUNNY   89  65  44 VRB3      30.07F HX  91
FRANKFORT      MOSUNNY   89  64  43 VRB3      30.06S HX  90
LOUISVILLE     MOSUNNY   90  66  45 SW7       30.03F HX  92
LEBANON*         N/A     90  63  40 SW3       30.07S HX  90
GLASGOW*       MOSUNNY   92  63  37 S5        30.07S HX  93
BOWLING GREEN  PTSUNNY   91  68  46 CALM      30.06S HX  95
$$

KYZ091>093-OHZ055-061-077-WVZ005-015-034-035-042-202200
...SOUTHERN OHIO/WEST VIRGINIA...

CITY           SKY/WX    TMP DP  RH WIND       PRES   REMARKS
COVINGTON      PTSUNNY   87  69  54 SW7       30.06F HX  91
COLUMBUS       MOSUNNY   88  68  51 S10       30.06F HX  91
DAYTON         PTSUNNY   88  62  41 W10       30.07S
WILMINGTON     SUNNY     86  69  56 S10       30.06F HX  90
HUNTINGTON     SUNNY     89  67  47 E5        30.07F HX  92
CHARLESTON     MOSUNNY   88  63  43 SW3       30.09F
PINEVILLE*     SUNNY     86  67  53 MISG      30.20S
BECKLEY        MOSUNNY   86  61  42 N7        30.19S
BLUEFIELD      SUNNY     82  59  45 VRB3      30.22S
LOGAN CO APT*    N/A     84  66  54 CALM      30.14S
$$

VAZ002-007-008-TNZ017-027-036-066-071-202200
...SOUTHWEST VIRGINIA/EAST TENNESSEE...

CITY           SKY/WX    TMP DP  RH WIND       PRES   REMARKS
WISE*          PTSUNNY   81  63  54 CALM      30.21F
JONESVILLE*      N/A     88  63  42 CALM      30.13S
ABINGDON*      SUNNY     87  63  43 CALM      30.17R
BRISTOL        MOSUNNY   89  62  40 W7        30.12F
MORRISTOWN*    CLEAR     90  61  37 NW5       30.09F
SEVIERVILLE*   CLEAR     90  63  40 VRB3      30.07F HX  90
KNOXVILLE      MOSUNNY   90  60  36 CALM      30.07F
LAFOLLETTE*    CLOUDY    84  72  65 N3        30.13S
OAK RIDGE      SUNNY     90  63  40 E6        30.09F HX  91
CROSSVILLE     SUNNY     84  66  54 CALM      30.14F
NASHVILLE      MOSUNNY   94  57  28 E5        30.06S HX  92
$$

...KEY TO REMARKS...
VSB - VISIBILITY IN MILES
WCI - WIND CHILL INDEX
HX  - HEAT INDEX

$$



USA.gov is the U.S. government's official web portal to all federal, state and local government web resources and services.